| DS18B20 | SHTC3 | PZEM-004T | WiFi | ||||||||
|---|---|---|---|---|---|---|---|---|---|---|---|
| ID | Date d/m/Y & Time | data1 สูง | data2 ต่ำ | data3 นอก | temp pcb | hum pcb | Volt | Amp | Watt | rssi | Time |
| 14192 | 20/08/2026 00:14:08 | 30.8  | 31.0  | 27.8  | 32.0  | 68.3  | 230.8  | 0.04  | 4.6  | -76  | 00:14 |
| 14191 | 20/08/2026 00:09:25 | 30.9  | 31.0  | 27.8  | 31.9  | 68.2  | 228.8  | 0.04  | 4.6  | -78  | 00:09 |
| 14190 | 20/08/2026 00:04:42 | 30.9  | 31.1  | 27.7  | 31.7  | 68.2  | 229.9  | 0.04  | 4.6  | -78  | 00:04 |
| 14189 | 19/08/2026 23:59:59 | 30.9  | 31.1  | 27.7  | 31.8  | 68.1  | 228.9  | 0.04  | 4.6  | -77  | 23:59 |
| 14188 | 19/08/2026 23:55:14 | 30.9  | 31.1  | 27.8  | 31.9  | 68.2  | 230.2  | 0.04  | 4.6  | -78  | 23:55 |
| 14187 | 19/08/2026 23:50:31 | 31.0  | 31.1  | 27.8  | 32.1  | 68.2  | 228.5  | 0.04  | 4.6  | -78  | 23:50 |
| 14186 | 19/08/2026 23:45:48 | 31.0  | 31.2  | 27.9  | 32.0  | 68.2  | 229.7  | 0.04  | 4.6  | -78  | 23:45 |
| 14185 | 19/08/2026 23:41:04 | 31.1  | 31.2  | 28.0  | 32.0  | 68.1  | 227.9  | 0.04  | 4.6  | -77  | 23:41 |
| 14184 | 19/08/2026 23:36:21 | 31.1  | 31.2  | 28.0  | 32.0  | 68.2  | 228.0  | 0.04  | 4.6  | -78  | 23:36 |
| 14183 | 19/08/2026 23:31:37 | 31.1  | 31.2  | 28.0  | 32.1  | 68.2  | 227.7  | 0.04  | 4.6  | -76  | 23:31 |
| 14182 | 19/08/2026 23:26:54 | 31.1  | 31.2  | 28.0  | 32.1  | 68.2  | 228.0  | 0.04  | 4.6  | -77  | 23:26 |
| 14181 | 19/08/2026 23:22:11 | 31.1  | 31.2  | 28.1  | 32.1  | 68.2  | 228.0  | 0.04  | 4.6  | -78  | 23:22 |
| 14180 | 19/08/2026 23:17:27 | 31.2  | 31.3  | 28.1  | 32.1  | 68.2  | 227.4  | 0.04  | 4.6  | -78  | 23:17 |
| 14179 | 19/08/2026 23:12:44 | 31.2  | 31.3  | 28.3  | 32.3  | 68.3  | 227.1  | 0.04  | 4.6  | -76  | 23:12 |
| 14178 | 19/08/2026 23:08:01 | 31.2  | 31.4  | 28.3  | 32.1  | 68.2  | 227.1  | 0.04  | 4.6  | -78  | 23:08 |
| 14177 | 19/08/2026 23:03:18 | 31.2  | 31.4  | 28.4  | 32.1  | 68.0  | 227.9  | 0.04  | 4.6  | -78  | 23:03 |
| 14176 | 19/08/2026 22:58:34 | 31.3  | 31.4  | 28.4  | 32.2  | 68.0  | 229.6  | 0.04  | 4.6  | -78  | 22:58 |
| 14175 | 19/08/2026 22:53:51 | 31.3  | 31.4  | 28.4  | 32.3  | 68.0  | 229.1  | 0.04  | 4.6  | -79  | 22:53 |
| 14174 | 19/08/2026 22:49:07 | 31.4  | 31.5  | 28.2  | 32.3  | 68.1  | 229.0  | 0.04  | 4.6  | -77  | 22:49 |
| 14173 | 19/08/2026 22:44:24 | 31.4  | 31.5  | 28.3  | 32.1  | 68.0  | 229.3  | 0.04  | 4.6  | -79  | 22:44 |
| 14172 | 19/08/2026 22:39:41 | 31.3  | 31.5  | 28.4  | 32.3  | 68.0  | 230.4  | 0.04  | 4.6  | -79  | 22:39 |
| 14171 | 19/08/2026 22:34:57 | 31.4  | 31.6  | 28.4  | 32.3  | 68.1  | 229.0  | 0.04  | 4.6  | -78  | 22:34 |
| 14170 | 19/08/2026 22:30:14 | 31.4  | 31.6  | 28.5  | 32.4  | 68.0  | 230.0  | 0.04  | 4.6  | -78  | 22:30 |
| 14169 | 19/08/2026 22:25:30 | 31.4  | 31.6  | 28.7  | 32.3  | 68.1  | 228.5  | 0.04  | 4.6  | -78  | 22:25 |